Regional Weather Roundup
Issued by NWS

Home | Current Version | Previous Version | Graphics & Text | Print | Product List | Glossary On
Versions: 1 2 3 4 5 6 7 8 9 10 11 12 13 14 15 16 17 18 19 20 21 22 23 24 25 26 27 28 29 30 31 32 33 34 35 36 37 38 39 40 41 42 43 44 45 46 47 48 49 50
000
ASUS43 KOAX 192302
RWRNE

WEATHER ROUNDUP FOR NEBRASKA
NATIONAL WEATHER SERVICE OMAHA NE
500 PM CST SUN FEB 19 2017

NOTES: SATELLITE DATA IS BEING USED TO AUGMENT CLOUD COVER ABOVE
       12000 FEET.
       "FAIR" INDICATES FEW OR NO CLOUDS BELOW 12,000 FEET WITH NO
       SIGNIFICANT WEATHER AND/OR OBSTRUCTIONS TO VISIBILITY.

  * THESE STATIONS DO NOT REPORT WEATHER SUCH AS RAIN...SNOW OR FOG.

NEZ001>004-019>022-054>056-200000-
NEBRASKA PANHANDLE

CITY           SKY/WX    TMP DP  RH WIND       PRES   REMARKS
SCOTTSBLUFF    CLOUDY    57  34  41 E3        29.56F
ALLIANCE       CLOUDY    57  30  35 SE7       29.58S
CHADRON        CLOUDY    62  32  32 S10       29.53F
KIMBALL        CLOUDY    59  32  35 E3        29.58F
SIDNEY         CLOUDY    61  35  37 SE25G39   29.56F
$$

NEZ057>060-069>072-079>082-200000-
SOUTHWEST NEBRASKA

CITY           SKY/WX    TMP DP  RH WIND       PRES   REMARKS
NORTH PLATTE   MOSUNNY   68  42  38 SE12      29.63F
IMPERIAL       PTSUNNY   66  41  40 S18G26    29.62S
LEXINGTON      MOSUNNY   70  42  36 S18G24    29.67F
MCCOOK         CLOUDY    74  49  41 S29G39    29.63F
OGALLALA       CLOUDY    67  40  38 SE17G23   29.59F
$$

NEZ005>010-023>029-035>040-094-200000-
NORTH CENTRAL NEBRASKA

CITY           SKY/WX    TMP DP  RH WIND       PRES   REMARKS
VALENTINE      CLOUDY    64  36  35 S15G25    29.58F
AINSWORTH      MOSUNNY   63  42  46 S13       29.61F
BROKEN BOW     MOSUNNY   68  44  42 S22G31    29.66F
O`NEILL        MOSUNNY   69  44  40 S10G18    29.65S
ORD            MOSUNNY   70  41  34 S15       29.67S
THEDFORD       CLOUDY    64  43  47 S16       29.62F
$$

NEZ041-046>049-061>064-073>077-083>087-200000-
SOUTH CENTRAL NEBRASKA

CITY           SKY/WX    TMP DP  RH WIND       PRES   REMARKS
GRAND ISLAND   MOSUNNY   65  50  58 S17G24    29.73S
AURORA         PTSUNNY   65  49  57 S18       29.74F
HASTINGS       MOSUNNY   66  49  54 SE17G25   29.74S
HEBRON         MOSUNNY   61  50  68 S17       29.78S
HOLDREGE       MOSUNNY   69  41  35 S24G30    29.69S
KEARNEY *      PTSUNNY   70  45  40 S17G26    29.71S
YORK           MOSUNNY   64  50  59 S17       29.76S
$$

NEZ011>018-030>034-042>045-200000-
NORTHEAST NEBRASKA

CITY           SKY/WX    TMP DP  RH WIND       PRES   REMARKS
NORFOLK        CLOUDY    66  47  50 S18       29.71S
ALBION         MOSUNNY   67  46  45 S16G22    29.71R
BLAIR          MOSUNNY   69  51  52 S22       29.78F
FREMONT        MOSUNNY   69  47  45 S13G21    29.77S
TEKAMAH        PTSUNNY   66  52  60 S16       29.77F
WAYNE          CLOUDY    66  52  60 S16       29.71F
$$

NEZ050>053-065>068-078-088>093-200000-
SOUTHEAST NEBRASKA

CITY           SKY/WX    TMP DP  RH WIND       PRES   REMARKS
LINCOLN        MOSUNNY   69  51  52 S17G28    29.78S
OMAHA EPPLEY   PTSUNNY   71  51  49 S18G25    29.79S
BEATRICE       MOSUNNY   65  53  63 S15G22    29.81S
FALLS CITY     SUNNY     70  54  56 S17G24    29.83S
NEBRASKA CITY  MOSUNNY   69  46  44 S15       29.82S
PLATTSMOUTH    MOSUNNY   70  48  45 S9        29.81S
$$

NEZ044-045-051>053-067-200000-
OMAHA AREA

CITY           SKY/WX    TMP DP  RH WIND       PRES   REMARKS
OMAHA EPPLEY   PTSUNNY   71  51  49 S18G25    29.79S
BLAIR          MOSUNNY   69  51  52 S22       29.78F
FREMONT        MOSUNNY   69  47  45 S13G21    29.77S
MILLARD        SUNNY     72  54  54 S10       29.79S
OFFUTT AFB     SUNNY     70  54  56 S15       29.79F
PLATTSMOUTH    MOSUNNY   70  48  45 S9        29.81S
WAHOO          FAIR      69  47  44 S14       29.77S
$$



USA.gov is the U.S. government's official web portal to all federal, state and local government web resources and services.